SCP
0 0 0 1 1 0 0 0 0 0 0 0 0 0 0 0 0 0 0 0 0 0 0 0 0 0 0 0 0 0 0 0 0 0 0 0 0 0 0 0 0 0 0 0 0 0 0 0 0
0 0 0 1 0 0 0 0 0 0 0 0 0 0 0 0 0 0 0 0 0 0 0 0 0 0 0 0 0 0 0 0 0 0 0 0 0 0 0 0 0 0 0 0 0 0 0 0 0
0 0 1 0 0 0 0 0 0 0 0 0 0 0 0 0 0 0 0 0 0 0 0 0 0 0 0 0 0 0 0 0 0 0 0 0 0 0 0 0 0 0 0 0 0 0 0 0 0
0 1 1 0 0 0 0 0 0 0 0 0 0 0 0 0 0 0 0 0 0 0 0 0 0 0 0 0 0 0 0 0 0 0 0 0 0 0 0 0 0 0 0 0 0 0 0 0 0
1 1 0 0 0 0 0 0 0 0 0 0 0 0 0 0 0 0 0 0 0 0 0 0 0 0 0 0 0 0 0 0 0 0 0 0 0 0 0 0 0 0 0 0 0 0 0 0 0
1 1 0 0 0 0 0 0 0 0 0 0 0 0 0 0 0 0 0 0 0 0 0 0 0 0 0 0 0 0 0 0 0 0 0 0 0 0 0 0 0 0 0 0 0 0 0 0 0
1 1 0 0 0 0 0 0 0 0 0 0 0 0 0 0 0 0 0 0 0 0 0 0 0 0 0 0 0 0 0 0 0 0 0 0 0 0 0 0 0 0 0 0 0 0 0 0 0
1 0 0 0 0 0 0 0 0 0 0 0 0 0 0 0 0 0 0 0 0 0 0 0 0 0 0 0 0 0 0 0 0 0 0 0 0 0 0 0 0 0 0 0 0 0 0 0 0
0 0 0 0 0 0 0 0 0 0 0 0 0 0 0 0 0 0 0 0 0 0 0 0 0 0 0 0 0 0 0 0 0 0 0 0 0 0 0 0 0 0 0 0 0 0 0 0 0
0 0 0 0 0 0 0 0 0 0 0 0 0 0 0 0 0 0 0 0 0 0 0 0 0 0 0 0 0 0 0 0 0 0 0 0 0 0 0 0 0 0 0 0 0 0 0 0 0
0 0 0 0 0 0 0 0 0 0 0 0 0 0 0 0 0 0 0 0 0 0 0 0 0 0 0 0 0 0 0 0 0 0 0 0 0 0 0 0 0 0 0 0 0 0 0 0 0
0 0 0 0 0 0 0 0 0 0 0 0 0 0 0 0 0 0 0 0 0 0 0 0 0 0 0 0 0 0 0 0 0 0 0 0 0 0 0 0 0 0 0 0 0 0 0 0 0
0 0 0 0 0 0 0 0 0 0 0 0 0 0 0 0 0 0 0 0 0 0 0 0 0 0 0 0 0 0 0 0 0 0 0 1 0 0 0 0 0 0 0 0 0 0 0 0 0
0 0 0 0 0 0 0 0 0 0 0 0 0 0 0 0 0 0 0 0 0 0 0 0 0 0 0 0 0 0 0 0 0 0 1 1 1 1 1 0 0 0 0 0 0 0 0 0 0
0 0 0 0 0 0 0 0 0 0 0 0 0 0 0 0 0 0 0 0 0 0 0 0 0 0 0 0 0 0 0 0 0 0 1 1 1 1 1 1 0 0 0 0 0 0 0 0 0
0 0 0 0 0 0 0 0 0 0 0 0 0 0 0 0 0 0 0 0 0 0 0 0 0 0 0 0 0 0 0 0 0 0 1 1 1 1 1 1 1 0 0 0 0 0 0 0 0
0 0 0 0 0 0 0 0 0 0 0 0 0 0 0 0 0 0 0 0 0 0 0 0 0 0 0 1 1 0 0 0 0 0 1 1 1 1 1 1 1 1 0 0 0 0 0 0 0
0 0 0 0 0 0 0 0 0 0 0 0 0 0 0 0 0 0 0 0 0 0 0 0 0 0 0 1 1 1 1 1 1 1 1 1 1 1 1 0 1 1 0 0 0 0 0 0 0
0 0 0 0 0 0 0 0 0 0 0 0 0 0 0 0 0 0 0 0 0 0 0 0 0 1 1 1 1 1 1 1 1 1 1 1 1 1 1 0 0 1 1 0 0 0 0 0 0
0 0 0 0 0 0 0 0 0 0 0 0 0 0 0 0 0 0 0 0 0 0 0 1 1 1 1 1 1 1 1 1 1 1 1 1 1 1 1 0 0 1 1 0 0 0 0 0 0
0 0 0 0 0 0 0 0 0 0 0 0 0 0 0 0 0 0 0 0 0 0 0 1 1 1 1 1 1 1 1 1 1 1 1 1 1 1 1 1 1 1 1 1 0 0 0 0 0
0 0 0 0 0 0 0 0 0 0 0 0 0 0 1 0 0 1 1 0 0 0 1 1 1 1 1 1 1 1 1 1 1 1 1 1 1 1 1 1 1 1 1 1 0 0 0 0 0
0 0 0 0 0 0 0 0 0 0 0 0 0 1 1 1 1 1 1 1 1 0 1 1 1 1 1 1 1 1 1 1 1 1 1 1 1 1 1 1 1 1 1 1 0 0 0 0 0
0 0 0 0 0 0 0 0 0 0 0 0 0 1 1 1 1 1 1 1 1 1 1 1 1 1 1 1 1 1 1 1 1 1 1 1 1 1 1 1 1 1 1 1 1 1 0 0 0
0 0 0 0 0 0 0 0 0 0 0 0 0 1 1 1 1 1 1 1 1 1 1 1 1 1 1 1 1 1 1 1 1 1 1 1 1 1 1 1 1 1 1 1 1 1 1 1 1
0 0 0 0 0 0 0 0 0 0 0 0 0 0 0 0 1 1 1 1 1 1 1 1 1 1 1 1 1 1 1 1 1 1 1 1 1 1 1 1 1 1 1 1 1 1 1 1 1
0 0 0 0 0 0 0 0 0 0 0 0 0 0 0 0 0 1 1 1 1 1 1 1 1 1 1 1 1 1 1 1 1 1 1 1 1 1 1 1 1 1 1 1 1 1 1 1 1
0 0 0 0 0 0 0 0 0 0 0 0 0 0 0 0 0 1 1 1 0 1 1 1 1 1 1 1 1 1 1 1 1 1 1 1 1 1 1 1 1 1 1 1 1 1 1 1 1
0 0 0 0 0 0 0 0 0 0 0 0 0 0 0 0 1 1 1 0 0 0 1 1 1 1 1 1 1 1 1 1 1 1 1 1 1 1 1 1 1 1 1 1 1 1 1 1 1
0 0 0 0 0 0 0 0 0 0 0 0 0 0 0 0 1 1 1 1 0 0 1 1 1 1 1 2 2 1 1 1 1 1 1 1 2 2 1 1 1 1 1 1 1 1 1 1 1
Wind_Speed
10 11 9 6 5 3 6 10 11 11 11 10 11 12 15 15 10 7 6 7 7 8 8 7 7 6 6 5 5 5 5 4 4 4 5 5 5 5 5 4 4 4 4 4 4 4 5 4 4
9 11 8 5 4 3 9 10 11 11 10 8 11 13 14 14 12 9 7 6 7 8 8 7 8 7 6 6 6 5 5 5 5 5 5 5 5 5 5 4 4 4 4 3 4 4 5 4 4
12 13 7 4 2 6 9 10 10 9 10 9 11 14 13 11 11 8 7 6 7 8 9 9 9 7 7 6 6 6 6 5 5 5 5 5 5 5 4 4 3 3 3 3 3 3 4 5 4
8 7 6 3 5 8 9 9 9 9 9 10 11 12 13 11 9 8 7 7 8 9 10 9 9 8 7 7 6 6 6 5 5 5 4 4 4 5 4 3 3 3 2 2 2 3 4 5 5
8 6 4 2 6 8 9 9 9 10 10 12 13 14 13 12 11 9 8 8 8 9 9 8 9 9 8 7 7 6 6 5 5 5 4 4 4 5 4 3 3 3 2 2 2 3 5 6 6
5 5 3 3 7 8 10 9 9 10 10 11 12 13 11 10 9 8 9 8 8 8 8 8 9 9 7 7 7 7 6 6 5 4 4 4 5 5 4 4 3 3 2 2 2 3 4 5 5
6 5 3 3 6 8 9 8 10 9 10 10 9 11 10 8 9 8 8 8 9 8 7 6 7 6 7 7 7 7 7 6 5 5 4 4 5 6 5 5 4 3 3 2 2 2 4 5 6
6 5 5 4 7 9 8 9 10 8 10 9 9 10 8 7 9 9 9 9 9 8 7 6 6 5 4 6 7 8 8 7 6 5 5 5 5 6 6 6 5 4 3 3 3 3 3 5 6
6 3 5 7 7 7 6 8 8 7 10 12 14 13 10 9 9 9 8 8 8 7 7 6 6 4 4 5 7 7 8 7 6 5 5 4 2 3 5 5 6 5 4 4 4 4 4 4 6
2 2 4 5 6 6 6 7 7 7 9 11 12 12 11 10 9 8 7 8 7 7 7 6 6 5 4 4 4 3 4 4 3 3 2 2 1 1 2 6 6 6 5 5 5 4 3 3 3
1 1 2 3 6 5 6 6 6 8 8 9 10 10 9 9 9 8 7 7 7 6 7 7 6 5 4 3 3 2 2 3 3 4 3 2 2 1 2 2 3 3 4 3 3 4 2 2 2
2 2 2 3 4 4 6 6 8 8 9 10 10 10 8 9 9 8 7 7 7 6 7 6 6 5 4 4 2 3 3 2 3 4 4 2 1 2 2 1 1 1 1 2 1 1 1 1 1
3 2 2 0 1 5 6 6 7 8 10 10 10 9 8 9 9 8 7 8 7 6 7 7 6 6 5 4 3 4 4 3 4 3 3 2 2 2 2 2 2 1 1 2 1 1 1 0 0
4 3 2 1 1 4 5 6 6 8 8 9 9 8 8 9 8 8 7 7 7 7 7 6 6 6 4 4 3 3 3 3 3 4 4 3 3 2 2 2 2 2 1 2 1 1 1 1 1
4 4 4 3 2 2 4 5 5 8 8 8 8 8 8 8 8 7 7 6 7 7 7 6 5 6 5 4 3 3 3 3 3 3 4 3 3 3 2 1 1 1 1 1 1 1 0 0 1
6 6 5 4 4 3 3 4 7 7 10 8 7 8 8 7 7 7 8 7 7 7 6 5 5 6 5 3 2 2 3 3 3 3 3 4 3 2 1 1 1 1 1 0 0 0 0 1 1
7 7 6 4 6 3 3 5 8 8 9 8 7 8 8 8 7 6 7 8 8 7 6 5 5 5 4 3 2 2 2 2 2 3 3 3 2 2 1 1 1 1 1 1 1 1 1 0 1
6 5 4 4 4 3 2 5 8 8 9 9 8 8 8 8 8 7 7 9 8 7 6 5 5 4 2 2 2 2 2 2 2 3 3 3 2 2 2 1 1 1 2 2 2 2 1 0 1
9 6 5 4 2 3 3 5 6 5 4 6 8 8 9 8 8 9 9 9 8 7 6 4 4 3 1 1 1 1 1 2 2 3 3 3 2 2 1 2 1 1 2 1 1 1 1 1 1
8 6 6 3 2 4 2 5 6 5 6 6 7 8 10 10 8 8 9 8 8 7 6 4 3 3 2 2 1 1 1 1 1 2 2 2 2 1 1 2 2 2 1 1 1 1 1 1 0
8 7 7 5 4 5 5 3 5 4 4 6 7 8 9 11 10 9 9 8 7 7 6 4 3 3 2 2 1 1 1 1 1 1 1 2 1 1 1 1 1 1 1 1 1 1 1 2 1
7 6 7 7 7 4 6 4 5 7 7 7 9 9 9 9 10 9 9 8 7 7 7 5 4 3 3 1 1 1 1 1 1 1 1 1 1 1 1 1 0 1 1 1 1 1 2 2 2
9 7 7 7 7 7 7 6 4 8 8 10 9 9 9 10 10 10 9 8 7 7 7 6 5 4 3 1 1 1 1 1 1 1 1 1 1 1 0 1 0 0 0 0 1 1 2 2 2
10 8 7 7 5 7 9 7 4 7 9 9 8 9 8 8 9 8 8 8 7 7 6 6 5 4 3 2 1 1 2 2 2 1 0 0 1 1 1 1 1 1 1 1 1 1 2 2 2
9 7 4 5 4 7 6 5 2 5 6 8 10 10 9 8 8 8 7 8 7 6 6 6 6 4 3 2 1 1 1 1 1 1 1 0 0 0 1 1 1 1 1 1 1 0 1 2 2
10 9 6 7 6 6 4 2 1 3 4 9 10 10 10 9 8 8 8 8 7 6 6 7 6 4 4 3 2 1 0 0 0 1 1 1 1 1 1 1 1 1 1 1 1 1 1 1 2
10 9 9 9 8 8 3 2 3 2 5 9 10 10 10 9 8 8 7 8 7 7 6 6 6 5 4 3 3 2 1 1 2 2 2 2 2 1 1 1 1 1 1 2 2 1 2 1 2
11 10 8 6 5 7 6 4 4 5 4 6 9 10 9 8 8 8 7 6 5 5 6 6 6 5 4 4 2 2 1 1 1 1 1 2 2 2 2 1 1 1 1 1 1 1 1 1 1
10 10 9 8 5 6 5 2 2 5 5 6 9 10 9 8 9 9 8 6 5 4 5 5 5 5 4 4 2 2 2 2 1 0 1 1 2 1 1 1 1 1 1 1 1 1 1 1 1
10 8 8 7 5 6 5 2 2 4 6 7 9 9 8 8 9 9 8 7 5 4 4 4 4 4 4 4 3 2 1 1 1 1 1 1 1 1 1 1 1 1 1 1 1 2 2 2 2
Wind_Direction
198 214 216 235 246 244 37 48 48 49 53 48 43 47 52 48 44 67 73 61 77 99 108 111 104 97 93 96 104 106 114 120 125 132 135 135 135 132 131 133 139 147 156 159 161 162 158 160 160
222 224 227 244 268 20 50 50 50 48 57 59 57 55 60 58 62 80 73 62 78 101 106 104 109 100 94 98 102 104 108 109 118 128 131 133 132 131 135 142 148 151 153 156 165 162 164 166 169
248 249 255 245 355 41 49 52 59 57 56 59 68 60 54 58 66 76 79 79 78 89 98 108 118 111 105 105 108 108 107 107 112 122 128 136 140 145 151 158 154 151 146 144 143 165 173 175 177
247 240 239 286 29 46 53 54 54 60 58 56 66 71 66 62 74 82 85 77 76 88 96 112 120 116 114 112 112 110 111 112 114 114 119 133 148 151 155 160 161 156 146 140 149 168 181 186 190
246 263 261 7 48 57 58 59 57 60 54 61 72 80 78 74 81 85 81 77 77 84 96 111 116 117 120 119 118 118 118 117 114 108 107 122 141 152 157 158 155 159 166 171 188 192 192 195 200
260 268 312 35 59 63 63 55 57 62 65 67 77 86 79 85 87 80 77 73 78 80 93 112 117 117 119 126 126 127 130 125 120 117 114 128 145 153 162 162 159 168 185 197 211 209 201 199 204
257 287 329 23 68 66 61 57 56 61 61 62 77 88 88 87 91 86 80 74 71 76 83 97 111 118 121 122 128 136 137 138 137 135 132 141 156 162 164 161 165 173 180 192 199 197 199 204 210
254 295 334 31 54 67 68 66 61 64 67 64 69 82 95 99 96 87 76 70 65 65 73 77 87 102 120 130 132 136 142 145 150 152 151 155 165 171 172 166 167 177 180 185 184 186 199 209 212
254 309 345 35 52 70 76 83 78 85 81 71 70 84 101 108 96 86 77 70 64 65 66 68 65 71 87 109 120 138 146 147 153 156 160 165 171 166 166 153 161 172 178 182 188 189 195 209 211
274 326 359 30 51 70 72 82 98 90 84 86 86 91 104 105 93 81 72 71 63 55 64 65 60 48 63 81 104 125 129 135 143 118 129 128 129 125 110 133 162 170 176 179 187 193 193 206 206
271 304 329 17 43 59 76 77 81 92 83 86 98 103 105 104 97 90 82 78 75 67 61 64 65 47 38 53 85 89 100 112 115 103 94 86 71 79 89 114 145 171 174 174 171 189 198 197 172
239 297 342 42 45 58 75 80 79 78 94 102 108 115 116 110 101 97 95 91 86 77 72 62 61 57 42 46 58 91 87 92 94 99 77 72 73 51 77 85 100 132 126 129 132 142 143 137 153
309 320 344 48 93 87 93 95 95 95 100 104 113 118 115 106 103 93 90 92 91 85 81 76 64 57 43 46 36 68 74 77 83 86 81 60 77 61 50 56 45 38 72 102 99 101 89 92 221
290 321 319 294 131 125 118 112 115 109 106 113 121 124 112 103 103 100 93 90 87 82 80 79 78 80 60 58 53 59 66 81 79 82 81 65 74 75 56 65 48 39 38 52 77 113 137 162 179
284 293 272 259 221 187 129 108 114 128 127 130 138 133 118 117 113 109 101 94 92 86 83 87 91 86 74 61 51 64 62 77 80 86 87 75 64 62 56 57 67 49 47 37 50 31 63 155 176
256 248 247 251 233 204 182 142 142 154 147 143 146 136 130 123 119 115 110 103 96 91 84 76 76 85 85 75 52 58 55 69 78 82 84 84 72 59 52 60 60 72 89 96 100 107 57 30 360
246 244 234 216 236 215 205 143 148 169 152 145 151 144 142 135 122 117 120 112 103 97 92 83 73 78 79 81 78 73 73 68 74 79 77 76 73 56 43 63 50 41 70 43 1 59 73 96 342
263 260 248 228 212 216 215 149 156 165 157 155 160 153 147 141 140 141 130 118 112 106 99 92 87 87 96 87 85 76 74 71 78 83 82 76 60 58 41 73 55 35 67 43 25 10 353 348 250
274 280 279 265 219 225 192 149 152 151 171 163 157 154 144 145 147 139 131 125 121 114 109 103 94 90 83 81 80 73 77 88 92 99 94 86 76 59 52 36 39 43 71 63 32 13 323 291 302
275 280 281 256 212 256 215 152 152 170 184 178 166 159 154 151 150 141 137 135 131 128 126 121 114 108 105 85 78 104 89 93 97 94 102 102 94 63 77 57 17 31 39 50 27 355 324 307 358
277 280 286 297 286 281 268 184 156 170 207 176 179 172 160 155 161 153 145 141 138 136 134 128 117 104 90 88 91 88 101 90 73 105 116 114 108 83 56 71 44 5 32 45 325 326 338 327 316
274 280 286 289 284 276 270 247 178 177 194 195 185 178 165 154 158 155 148 145 147 137 131 123 119 111 98 90 54 44 74 60 47 73 92 110 104 103 103 102 82 335 20 30 321 21 332 319 323
274 266 285 295 289 285 263 261 182 174 193 196 187 171 159 156 157 156 153 153 148 137 133 125 118 112 108 96 60 24 16 31 50 51 89 115 127 109 135 132 102 42 16 25 353 355 337 342 343
271 277 284 285 275 267 260 255 183 185 195 182 173 166 157 152 149 149 149 145 144 140 135 131 123 116 117 112 76 48 1 16 20 359 1 201 138 139 125 98 82 64 16 18 353 343 334 337 348
259 263 278 276 260 259 261 257 173 175 174 163 162 155 150 149 149 147 151 148 146 144 138 132 132 134 136 136 120 97 358 344 333 313 326 338 18 72 76 52 66 38 20 355 347 312 327 340 341
249 245 250 272 273 271 244 227 135 121 144 138 144 146 147 150 153 155 157 152 151 150 144 137 139 144 144 140 130 108 94 297 331 344 348 6 354 39 70 88 83 55 7 351 16 349 338 348 335
257 253 254 260 268 282 282 117 134 163 136 136 138 142 144 151 153 152 154 153 156 154 150 146 144 145 146 146 137 131 122 21 18 23 5 12 358 22 66 80 73 43 13 2 23 5 356 4 339
251 269 270 261 268 281 283 245 193 175 164 150 143 140 140 145 146 144 143 143 142 147 151 149 147 148 143 142 158 148 149 115 77 23 15 7 14 28 37 26 45 48 12 8 359 357 353 341 333
244 251 267 283 286 276 279 288 115 164 164 162 149 143 143 147 146 144 139 133 136 144 143 151 153 152 149 154 152 139 142 145 141 65 356 5 16 24 10 358 1 27 37 12 349 338 351 330 323
260 261 267 270 276 277 278 267 188 169 155 160 149 139 137 138 132 131 127 125 129 126 129 146 155 158 151 140 134 122 110 120 127 93 19 26 40 33 10 359 350 358 43 34 6 334 336 329 335